Retour au catalogue

ALICE

ActifScienceLEO
NORAD 39467·PAYLOAD·🇺🇸 United States

Lancé Dec 6, 2013 depuis Vandenberg Space Force Base

Loading…

Prochains Passages (prochaines 24 heures)

TLE

FraisSource: Space-Track

Époque: Sep 14, 2026, 08:05 UTC

1 39467U 13072F   26257.33694453  .00009730  00000-0  43469-3 0  9999
2 39467 120.4628 279.6257 0169805  89.0501 273.0018 15.10251866128731

Suivez ALICE en temps réel avec AllMySat

Download on the App Store